VRSS-2

Satellite information

Favourite Embed

Satellite Type and Status

PAYLOADIN ORBIT

Key statistics

Satellite VRSS-2 at a glance.

Uptime

2829

Days in orbit

Revolutions

≈ 14.8

Per day

Orbit

SSO

Sun Synchronous Orbit

Inclination

97.7

Latest

Satellite identification and parameters

Extended collection of information and parameters for VRSS-2.

Object identification

Identified? True

Debris? False

Object name: VRSS-2

International designator: 2017-060A

Object number (NORAD): 42954

Object ID (CCSDS): 42954

Country: VENEZUELA (VENZ)

Current information (Y/N): Y

RCS size: LARGE

Orbital parameters

Period: 97.274 minutes

Inclination: 97.7002 deg

SMA: 7006.355 km

Apoapsis: 641.06 km

Periapsis: 615.38 km

RAAN: 236.3416 deg

Eccentricy: 0.0018326

Argument of periapsis: 141.2309 deg

Mean anomaly: 219.0223 deg

Mean motion: 14.80350508 rev/day

Mean motion (dot): 0.00000672 rev/day2

B* drag term: 0.00009438 1/REarth

Two-line elements (TLE)

Creation date: July 8, 2025, 2:27 a.m.

Reference frame: TEME

Reference center: EARTH

Epoch: July 7, 2025, 9:43 p.m. UTC

TLE line 0: 0 VRSS-2

TLE line 1: 1 42954U 17060A 25188.90519563 .00000672 00000-0 94380-4 0 9993

TLE line 2: 2 42954 97.7002 236.3416 0018326 141.2309 219.0223 14.80350508417506

Live tracking on map

Real-time ground track for satellite VRSS-2.

In-orbit conjunctions

There are no conjunctions computed for VRSS-2, at the moment. Check back to stay up to date, as we update our databases every day.

Go to all conjunctions

Associated space launch

VRSS-2 is the second Venezuelan remote sensing satellite. Spacecraft was built by China. Weighing about 1000 kg, it is to operate in sun-synchronous orbit at an altitude of 645 kilometres, providing services in traffic management, disaster warning and prevention, tracking agriculture and land use.

VRSS-2 was lifted into orbit during the mission ‘Long March 2D | VRSS-2 (Antonio José de Sucre)’, on board a Long March 2D space rocket.

The launch took place on Oct. 9, 2017, 4:13 a.m. from Launch Area 4 (SLS-2 / 603).

For more information about the launch, click the button.

Launch to space Long March 2D | VRSS-2 (Antonio José de Sucre)
Long March 2D | VRSS-2 (Antonio José de Sucre)

Agency: N/A

Status: Launch Successful

Launch date: Oct. 9, 2017, 4:13 a.m. UTC

Rocket: Long March 2D

Launch pad: Launch Area 4 (SLS-2 / 603)

Location: Jiuquan Satellite Launch Center, People's Republic of China

...

Latest news about this satellite

There are no fresh news available about this satellite. Check back as we update our databases every day.


Newsletter sign-up

Weekly statistics, charts and insights to help you stay on top of the space industry.